Location: Milton Keynes
(52.0316°N, 0.7531°W)
Time: 15:41:23
(UTC+01:00)

Genesis I - Pass Details

Date: 23 January 2019
Orbit: 477 x 549 km, 64.5° (Epoch: 19 April)

Event Time Altitude Azimuth Distance (km) Brightness Sun altitude
Exits shadow 05:05:14 30° 154° (SSE) 991 4.8 -25.9°
Maximum altitude 05:06:16 35° 122° (ESE) 892 4.8 -25.7°
Drops below altitude 10° 05:10:01 10° 56° (ENE) 1,826 6.7 -25.1°
Sets 05:12:22 0° 48° (NE) 2,729 7.6 -24.8°
